User: anonymous   Login
Location: Unspecified
(0.0000°N, 0.0000°E)
Time: 07:46:39
(UTC+02:00)
Language:

Meteor 1-10 Rocket - Orbit

View from above orbital plane
View from above orbital plane
View from above satellite
View from above satellite

Ground track
Ground track

The orbit data is extracted from the following two-line orbital elements,

1 05732U 71120B   15212.53362480  .00000024  00000-0  68932-5 0  9999
2 05732 081.2500 066.4127 0051370 172.4340 187.7615 14.05890893242457
Epoch (UTC): 31 July 2015 12:48:25
Eccentricity: 0.0051370
inclination: 81.2500°
perigee height: 836 km
apogee height: 911 km
right ascension of ascending node: 66.4127°
argument of perigee: 172.4340°
revolutions per day: 14.05890893
mean anomaly at epoch: 187.7615°
orbit number at epoch: 24245

The dashed part of the orbit path shows where the satellite is in the earth's shadow,  

DLR